Location: Grieser Field
(39.7333°N, 81.7975°W)
Time: 23:02:17
(UTC-05:00)

MOS 1-B - Visible Passes

Search period start: 26 February 2015 00:00
Search period end: 08 March 2015 00:00
Orbit: 906 x 913 km, 99.2° (Epoch: 25 February)

Date Brightness Start Highest point End Pass type
(mag) Time Alt. Az. Time Alt. Az. Time Alt. Az.
26 Feb 7.1 03:07:10 10° NNE 03:07:10 10° NNE 03:07:10 10° NNE visible
27 Feb 7.0 03:12:43 10° N 03:12:55 11° N 03:12:55 11° N visible
28 Feb 6.9 03:18:17 10° N 03:18:40 12° N 03:18:40 12° N visible
01 Mar 6.8 03:23:52 10° N 03:24:25 13° N 03:24:25 13° N visible
02 Mar 6.7 03:29:26 10° N 03:30:09 14° N 03:30:09 14° N visible
03 Mar 6.7 03:35:03 10° N 03:35:54 15° N 03:35:54 15° N visible
04 Mar 6.6 03:40:39 10° N 03:41:39 15° N 03:41:39 15° N visible
05 Mar 6.5 03:46:16 10° N 03:47:24 16° N 03:47:24 16° N visible
06 Mar 6.4 03:51:52 10° N 03:53:09 16° N 03:53:09 16° N visible
07 Mar 7.2 02:15:38 10° NNE 02:15:38 10° NNE 02:15:38 10° NNE visible
07 Mar 6.4 03:57:31 10° N 03:58:54 17° NNW 03:58:54 17° NNW visible
